www.pogodaiklimat.ru

Погода и климат >> Архив погоды >> Казахстан >> Астана


АРХИВ ПОГОДЫ в Астане

Время (UTC), дата Ветер
(напр.,м/с)
 
Видим.   Явления Облачность Т
(С)
Тd
(С)
f
(%)
Тe
(С)
Тes
(С)
Комфортность P
(гПа)
Po
(гПа)
Тmin
(С)
Tmax
(С)
R
(мм)
S
(см)
00 22.03 СВ 2 н/о ясно -12.4 -16.7 70 -17 -17 прохладно 1036.3 990.2
03 22.03 С 1 10 км ясно -8.9 -15.2 60 -11 -9 по сезону 1037.5 991.9 29
06 22.03 В 4 10 км ясно -0.5 -12.4 40 -5 +1 по сезону 1036.5 992.3 -13.6
09 22.03 В 4 10 км ясно +2.3 -9.3 42 -2 +3 по сезону 1035.3 991.6
12 22.03 СВ 3 10 км ясно +0.6 -5.6 63 -4 -3 по сезону 1035.3 991.4
15 22.03 СВ 3 н/о ясно -4.8 -8.2 77 -10 -10 по сезону 1036.5 991.7 +2.9
18 22.03 В 3 н/о ясно -4.5 -11.7 57 -9 -9 по сезону 1036.2 991.4 +2.9
21 22.03 В 3 н/о ясно -4.0 -12.6 51 -9 -9 по сезону 1035.8 991.1
00 23.03 СВ 1 н/о ясно -9.3 -13.8 70 -12 -12 по сезону 1036.1 990.5
03 23.03 В 2 10 км 10/0
[Ci fib]
-1.7 -12.9 42 -5 -3 по сезону 1034.3 990.0 27
06 23.03 Ю 2 10 км 10/0
[Ci fib]
+2.4 -9.2 42 0 +7 тепло 1033.2 989.6 -9.7
09 23.03 В 3 10 км 10/0
[Ci sp]
+3.9 -8.5 40 +1 +6 тепло 1030.8 987.6
12 23.03 В 2 10 км 8/0
[Ci]
+2.7 -6.9 49 0 +1 тепло 1029.5 986.2
15 23.03 ЮВ 3 н/о 10/0
[Ci]
+0.6 -8.1 52 -3 -3 по сезону 1029.3 985.6 +4.3
18 23.03 В 2 н/о 10/0
[Ci]
-0.4 -8.8 53 -3 -3 тепло 1027.5 983.8 +4.3
21 23.03 Ю 1 н/о ясно -1.9 -9.7 55 -3 -3 тепло 1025.1 981.2
00 24.03 В 2 н/о 10/0
[Ci fib]
-3.2 -11.2 54 -7 -7 по сезону 1022.9 978.9
03 24.03 Ю 3 10 км 10/0
[Ac cast Ci fib]
-1.7 -7.0 67 -6 -6 по сезону 1021.3 977.6 22
06 24.03 Ю 3 10 км {ливн. осадки} 10/10 750 м
[Cb cap]
+2.1 -1.7 76 -2 -2 по сезону 1018.4 975.5 -4.1
09 24.03 Ю 3 10 км {ливн. осадки} 10/10 870 м
[Cb cap]
+2.3 -0.1 84 -2 -2 по сезону 1016.5 973.7
12 24.03 Ю 4 4000 м слабый ливневой дождь 10/10 200 м
[Cb cap]
+1.0 -0.2 92 -4 -4 по сезону 1016.1 973.1
15 24.03 Ю 2 н/о {ливн. осадки} 10/10 150 м
[St]
+0.8 -0.1 94 -3 -3 по сезону 1016.3 973.3 +2.4
18 24.03 ЮЗ 2 н/о {ливн. осадки} 10/10 150 м
[St]
+0.5 -0.2 95 -3 -3 тепло 1016.6 973.5 +2.4 0.9
21 24.03 З 4 н/о слабый ливневой снег 10/10 300 м
[Cb cap]
-0.2 -0.9 95 -6 -6 по сезону 1017.2 974.0
00 25.03 З 2 н/о снежные зёрна {ливн. осадки} 10/10 300 м
[St]
-1.2 -2.0 94 -5 -5 по сезону 1019.0 975.5
03 25.03 З 4 10 км {снег} 10/10 150 м
[St]
-1.7 -2.8 92 -8 -8 по сезону 1020.9 977.3 20
06 25.03 З 2 10 км {снег} 9/9 300 м
[Sc]
-2.4 -5.2 81 -6 -5 по сезону 1022.7 978.9 -2.0 0.3
09 25.03 З 2 10 км 8/8 1500 м
[Sc]
+0.3 -3.6 75 -3 -1 по сезону 1023.2 979.8
12 25.03 З 2 10 км 9/9 300 м
[Sc]
+0.1 -2.6 82 -3 -3 по сезону 1024.4 980.9
15 25.03 З 1 н/о дымка 10/10 100 м
[Sc]
-1.8 -2.9 92 -4 -4 по сезону 1025.2 981.4 +1.4
18 25.03 Ю 1 н/о дымка 10/10 100 м
[St]
-2.2 -2.8 96 -5 -5 по сезону 1025.5 981.6 +1.4
21 25.03 ЮЗ 2 н/о дымка 10/10 200 м
[St]
-2.6 -3.7 92 -7 -7 по сезону 1025.5 981.5
00 26.03 Ю 2 н/о дымка 10/10 200 м
[St]
-3.1 -4.8 88 -7 -7 по сезону 1023.8 979.8
03 26.03 В 1 4000 м дымка 10/0
[As op]
-2.7 -5.0 84 -5 -4 по сезону 1021.8 978.0 17
06 26.03 Ю 1 10 км 10/0
[As op]
-0.1 -3.5 78 -2 0 по сезону 1019.6 976.3 -3.9
09 26.03 ЮВ 1 2000 м снег 10/0
[As op]
+0.7 -0.8 90 -1 +1 по сезону 1015.0 972.0
12 26.03 Ю 1 4000 м слабый снег 10/0
[As op]
+0.8 +0.1 95 -1 -1 по сезону 1012.5 969.6
15 26.03 СЗ 1 н/о слабый снег 10/9 100 м
[St As op]
+0.3 -0.1 97 -2 -2 по сезону 1012.7 969.7 +1.5
18 26.03 З 4 н/о слабый снег 10/9 200 м
[St As op]
-2.1 -2.9 94 -8 -8 по сезону 1016.3 972.8 +1.5 7
21 26.03 З 4 н/о {снег} 10/10 120 м
[St]
-2.4 -3.2 94 -9 -9 по сезону 1018.7 975.0
00 27.03 Ю 3 н/о дымка {снег} 10/10 100 м
[St]
-1.5 -1.9 97 -7 -7 по сезону 1019.8 976.2
03 27.03 Ю 3 500 м слабая морось {туман} [диам. гололёда 1 мм] 10/10 100 м
[St]
+0.6 +0.5 99 -4 -4 по сезону 1019.9 976.7 18
06 27.03 Ю 4 10 км {морось, туман} 10/10 210 м
[St]
+2.3 +1.1 92 -3 -3 по сезону 1020.2 977.2 -2.9 0.4
09 27.03 Ю 5 10 км 10/10 600 м
[Sc]
+2.9 +0.8 86 -2 -2 по сезону 1020.7 977.8
12 27.03 Ю 3 10 км 10/0
[Ac und]
+2.3 +0.8 90 -2 -2 по сезону 1021.5 978.5
15 27.03 Ю 3 н/о в посл. час ливневой дождь 10/10 1500 м
[Cb cap]
+1.5 +0.5 93 -3 -3 по сезону 1022.4 979.2 +3.8
18 27.03 ЮЗ 4 н/о дымка {ливн. осадки} 10/10 100 м
[St]
+1.1 +0.7 97 -4 -4 по сезону 1021.9 978.7 +3.8 0.0
21 27.03 Ю 5 н/о 10/10 200 м
[St]
+0.4 +0.1 98 -6 -6 по сезону 1020.6 977.3
00 28.03 Ю 5 н/о 10/10 1200 м
[Sc]
+0.4 -1.5 87 -6 -6 по сезону 1019.0 975.8
03 28.03 Ю 6 10 км 10/0
[Ci]
+1.8 -0.5 85 -4 -4 по сезону 1017.2 974.3 11
06 28.03 ЮЗ 5 10 км 10/10 90 м
[St]
+1.4 +0.5 94 -5 -5 по сезону 1017.7 974.7 +0.3
09 28.03 Ю 5 10 км 9/9 600 м
[Sc]
+3.1 +1.0 86 -2 -2 по сезону 1016.4 973.7
12 28.03 ЮЗ 6 10 км 10/10 90 м
[St]
+1.7 +0.8 94 -5 -5 по сезону 1014.7 971.9
15 28.03 Ю 6 н/о 3/3 800 м
[St]
+3.4 +1.3 86 -2 -2 по сезону 1012.7 970.2 +3.9
18 28.03 ЮЗ 3 н/о 8/8 300 м
[St]
+3.6 +1.2 84 -0 -0 тепло 1010.5 968.1 +3.9
21 28.03 Ю 4 н/о 3/0
[Ci fib]
+4.3 +1.2 80 0 0 тепло 1007.3 965.2

 

Местоположение метеостанции Астана (город Астана, Казахстан): широта 51.13 долгота 71.37 высота над уровнем моря 350 м.

В архиве по умолчанию представлена погода в Астане за последнюю неделю. Архивные данные за месяц целиком и за предыдущие месяцы, начиная с января 2011 года, Вы можете получить, выбрав интересующий диапазон дат из раскрывающегося списка и нажав кнопку "Ввод!".

Внимание! Время в таблицах - всемирное. Для получения местного времени необходимо прибавить поправку, которая в Астане равна 6 ч.

Смотрите также архив погоды в соседних городах и на ближайших метеорологических станциях:

Погода в Астане 2 (город Астана, Казахстан) (4 км)
Погода в Арнасае (Акмолинская область, Казахстан) (51 км)
Погода в Шортанды (Акмолинская область, Казахстан) (65 км)
Погода в Аршалы (Акмолинская область, Казахстан) (73 км)
Погода в Новомарковке (Акмолинская область, Казахстан) (92 км)
Погода в Киевке (Карагандинская область, Казахстан) (99 км)
Погода в Акколе (Акмолинская область, Казахстан) (101 км)
Погода в Осакаровке (Карагандинская область, Казахстан) (105 км)
Погода в Кургальджин (Акмолинская область, Казахстан) (114 км)
Погода в Жалтыре (Акмолинская область, Казахстан) (122 км)

Пояснения к столбцам:

Ветер - указаны скорость ветра в м/с - средняя за 10 мин, порывы в срок и между сроками (в фигурных скобках) и направление, откуда дует ветер: С - северный, СВ - северо-восточный, В - восточный, ЮВ - юго-восточный, Ю - южный, ЮЗ - юго-западный, З - западный, СЗ - северо-западный.
Видимость - горизонтальная дальность видимости в метрах или километрах. При видимости от 1 до 10 км при отсутствии осадков обычно наблюдается дымка, при ухудшении видимости до 1 км и менее - туман. В сухую погоду видимость может ухудшаться дымом, пылью или мглою.
Явления - указаны атмосферные явления, наблюдавшиеся в срок или в последний час перед сроком; фигурными скобками обозначены явления, наблюдавшиеся между сроками (за 1-3 часа до срока); квадратными скобками обозначены град или гололедные отложения с указанием их диаметра в мм.
Облачность - указаны через наклонную черту общая и нижняя облачность в баллах и высота нижней границы облаков в метрах; квадратными скобками обозначены формы облаков: Ci - перистые, Cs - перисто-слоистые, Cc - перисто-кучевые, Ac - высококучевые, As - высокослоистые, Sc - слоисто-кучевые, Ns - слоисто-дождевые, Cu - кучевые, Cb - кучево-дождевые. Подробнее классификацию облаков см. в Атласе облаков (PDF).
T - Температура воздуха - температура, измеренная на высоте 2 м над землей.
Td - Температура точки росы - температура, при понижении до которой содержащийся в воздухе водяной пар достигнет насыщения.
f - Относительная влажность воздуха - влажноcть воздуха, измеренная на высоте 2 м над землей.
Te - Эффективная температура - температура, которую ощущает одетый по сезону человек в тени. Характеристика душности погоды. При расчете учитывается влияние влажности воздуха и скорости ветра на теплоощущения человека.
Tes - Эффективная температура на солнце - температура, которую ощущает человек, с поправкой на солнечный нагрев. Характеристика знойности погоды. Зависит от высоты солнца над горизонтом, облачности и скорости ветра. Ночью, в пасмурную погоду, а также при ветре 12 м/с и более поправка равна нулю.
P - Атмосферное давление - приведенное к уровню моря атмосферное давление.
Po - Атмосферное давление - измеренное на уровне метеостанции атмосферное давление.
Tmin - Минимальная температура - минимум температуры воздуха на высоте 2 м над землей.
Tmax - Максимальная температура - максимум температуры воздуха на высоте 2 м над землей.
R - Количество осадков - Количество выпавших осадков, мм. При наведении курсора мыши на число - период времени, за который выпало указанное количество осадков.
S - Снежный покров - Высота снежного покрова, см. При наведении курсора мыши на число - состояние снежного покрова и степень покрытия местности в баллах.